Date String (YYYY-MM-DD hh:mm:ss) UTC,Instrument flags,Ambient pressure (hPa),Sample flow (lpm),Bypass flow (lpm),Sample temperature (°C),Ambient temperature (°C),ASC tube jacket temperature (°C),LED temperature (°C),Box temperature (°C),Sample RH (%),Span deviation,Mass concentration (μg/m³),Mass concentration (μg/m³),Mass concentration (μg/m³)
DateTimeUTC,F1_M11,P_M11,Q1_M11,Q2_M11,T1_M11,T2_M11,T3_M11,T4_M11,T5_M11,U1_M11,ZSPAN_M11,X2_M11,X0_M11,X1_M11
2023-04-07 13:00:00,,0833.8,5.00,0.00,22.2,20.2,00.0,30.7,23.5,07.5,0000.0,0002.52,0006.46,0001.68
2023-04-07 13:01:00,,0833.8,5.00,0.00,22.3,20.8,00.0,30.7,23.8,07.5,0000.0,0002.57,0006.55,0001.71
2023-04-07 13:02:00,,0833.8,5.00,0.00,22.4,22.2,00.0,30.6,24.3,07.5,0000.0,0002.65,0005.39,0001.76
2023-04-07 13:03:00,,0833.8,4.99,0.00,22.6,22.8,00.0,30.7,24.4,07.4,0000.0,0002.72,0006.04,0001.79
2023-04-07 13:04:00,,0833.8,4.98,0.00,22.6,22.6,00.0,30.8,24.2,07.5,0000.0,0002.75,0006.33,0001.82
2023-04-07 13:05:00,,0833.8,5.00,0.00,22.5,22.3,00.0,30.8,24.1,07.5,0000.0,0002.79,0006.10,0001.86
2023-04-07 13:06:00,,0833.8,5.01,0.00,22.5,21.9,00.0,30.8,24.0,07.7,0000.0,0002.91,0006.17,0001.90
2023-04-07 13:07:00,,0833.8,4.99,0.00,22.5,21.6,00.0,30.8,24.0,08.0,0000.0,0002.93,0006.19,0001.93
2023-04-07 13:08:00,,0833.8,5.00,0.00,22.5,21.3,00.0,30.8,23.9,08.1,0000.0,0002.99,0006.33,0001.94
2023-04-07 13:09:00,,0833.9,5.00,0.00,22.4,21.1,00.0,30.8,23.8,08.2,0000.0,0002.99,0006.30,0001.95
2023-04-07 13:10:00,,0833.8,5.01,0.00,22.4,20.8,00.0,30.8,23.8,08.3,0000.0,0002.89,0006.05,0001.93
2023-04-07 13:11:00,,0833.8,5.00,0.00,22.4,20.7,00.0,30.8,23.7,08.4,0000.0,0002.84,0005.92,0001.91
2023-04-07 13:12:00,,0833.8,5.00,0.00,22.3,20.5,00.0,30.7,23.7,08.4,0000.0,0002.78,0005.84,0001.88
2023-04-07 13:13:00,,0833.8,5.01,0.00,22.3,20.4,00.0,30.7,23.6,08.3,0000.0,0002.70,0005.70,0001.85
2023-04-07 13:14:00,,0833.8,5.00,0.00,22.2,20.4,00.0,30.7,23.6,08.4,0000.0,0002.62,0005.06,0001.82
2023-04-07 13:15:00,,0833.9,4.99,0.00,22.2,20.6,00.0,30.7,23.7,08.5,0000.0,0002.62,0004.69,0001.80
2023-04-07 13:16:00,,0833.9,5.01,0.00,22.4,22.0,00.0,30.6,24.2,08.4,0000.0,0002.57,0004.64,0001.77
2023-04-07 13:17:00,,0834.0,4.99,0.00,22.5,23.2,00.0,30.7,24.6,08.4,0000.0,0002.51,0004.49,0001.75
2023-04-07 13:18:00,,0833.9,4.99,0.00,22.6,23.1,00.0,30.7,24.5,08.5,0000.0,0002.47,0004.41,0001.74
2023-04-07 13:19:00,,0833.9,5.00,0.00,22.6,22.7,00.0,30.8,24.3,08.4,0000.0,0002.43,0004.88,0001.74
2023-04-07 13:20:00,,0834.0,5.01,0.00,22.6,22.3,00.0,30.8,24.2,08.4,0000.0,0002.44,0004.91,0001.75
2023-04-07 13:21:00,,0833.9,5.01,0.00,22.5,21.9,00.0,30.8,24.1,08.4,0000.0,0002.51,0006.29,0001.78
2023-04-07 13:22:00,,0833.9,5.00,0.00,22.5,21.7,00.0,30.8,24.0,08.4,0000.0,0002.55,0007.33,0001.80
2023-04-07 13:23:00,,0833.9,5.00,0.00,22.5,21.4,00.0,30.8,24.0,08.4,0000.0,0002.63,0008.48,0001.84
2023-04-07 13:24:00,,0834.0,5.01,0.00,22.5,21.2,00.0,30.8,23.9,08.5,0000.0,0002.70,0008.82,0001.87
2023-04-07 13:25:00,,0834.0,5.00,0.00,22.4,21.1,00.0,30.8,23.9,08.7,0000.0,0002.78,0008.93,0001.89
2023-04-07 13:26:00,,0834.0,5.00,0.00,22.4,20.9,00.0,30.8,23.9,08.8,0000.0,0002.76,0008.87,0001.91
2023-04-07 13:27:00,,0833.9,5.01,0.00,22.4,20.8,00.0,30.8,23.9,08.8,0000.0,0002.74,0008.86,0001.91
2023-04-07 13:28:00,,0834.0,5.00,0.00,22.4,20.7,00.0,30.8,23.8,08.7,0000.0,0002.69,0009.20,0001.90
2023-04-07 13:29:00,,0833.9,4.99,0.00,22.4,20.7,00.0,30.8,23.8,08.5,0000.0,0002.66,0009.44,0001.89
2023-04-07 13:30:00,,0833.8,4.99,0.00,22.4,20.6,00.0,30.8,23.8,08.4,0000.0,0002.67,0009.14,0001.87
2023-04-07 13:31:00,,0833.9,5.00,0.00,22.4,20.6,00.0,30.8,23.8,08.3,0000.0,0002.62,0009.12,0001.84
2023-04-07 13:32:00,,0833.8,5.00,0.00,22.3,20.6,00.0,30.7,23.8,08.5,0000.0,0002.57,0008.46,0001.81
2023-04-07 13:33:00,,0834.0,5.00,0.00,22.3,20.6,00.0,30.7,23.8,08.8,0000.0,0002.54,0007.75,0001.79
2023-04-07 13:34:00,,0833.8,5.00,0.00,22.3,20.6,00.0,30.7,23.8,08.6,0000.0,0002.50,0006.26,0001.77
2023-04-07 13:35:00,,0833.8,5.02,0.00,22.3,21.1,00.0,30.7,24.0,08.5,0000.0,0002.49,0005.79,0001.74
2023-04-07 13:36:00,,0834.0,5.00,0.00,22.5,22.7,00.0,30.6,24.5,08.6,0000.0,0002.44,0005.69,0001.73
2023-04-07 13:37:00,,0834.0,4.99,0.00,22.6,23.5,00.0,30.7,24.7,08.6,0000.0,0002.42,0005.67,0001.70
2023-04-07 13:38:00,,0834.0,4.99,0.00,22.7,23.2,00.0,30.8,24.5,08.6,0000.0,0002.44,0005.75,0001.71
2023-04-07 13:39:00,,0833.8,5.00,0.00,22.7,22.9,00.0,30.8,24.4,08.4,0000.0,0002.50,0005.39,0001.69
2023-04-07 13:40:00,,0833.8,5.01,0.00,22.7,22.6,00.0,30.9,24.3,08.3,0000.0,0002.52,0005.07,0001.68
2023-04-07 13:41:00,,0833.8,5.00,0.00,22.7,22.3,00.0,30.9,24.3,08.4,0000.0,0002.55,0005.04,0001.70
2023-04-07 13:42:00,,0833.8,5.00,0.00,22.7,22.0,00.0,30.9,24.3,08.7,0000.0,0002.54,0004.93,0001.72
2023-04-07 13:43:00,,0833.7,4.99,0.00,22.7,21.8,00.0,30.9,24.2,08.8,0000.0,0002.56,0004.86,0001.74
2023-04-07 13:44:00,,0833.8,5.00,0.00,22.7,21.7,00.0,30.9,24.2,08.6,0000.0,0002.56,0004.86,0001.75
2023-04-07 13:45:00,,0833.7,5.01,0.00,22.6,21.5,00.0,31.0,24.2,08.6,0000.0,0002.52,0004.70,0001.75
2023-04-07 13:46:00,,0833.8,5.00,0.00,22.6,21.4,00.0,30.9,24.1,08.6,0000.0,0002.48,0004.76,0001.76
2023-04-07 13:47:00,,0833.8,4.99,0.00,22.6,21.2,00.0,30.9,24.1,08.5,0000.0,0002.49,0005.10,0001.79
2023-04-07 13:48:00,,0833.8,4.99,0.00,22.6,21.1,00.0,30.9,24.1,08.8,0000.0,0002.50,0005.89,0001.83
2023-04-07 13:49:00,,0833.8,5.00,0.00,22.6,21.1,00.0,30.9,24.0,08.5,0000.0,0002.52,0006.41,0001.85
2023-04-07 13:50:00,,0833.8,5.00,0.00,22.6,21.1,00.0,30.9,24.1,08.7,0000.0,0002.47,0006.15,0001.86
2023-04-07 13:51:00,,0833.9,5.00,0.00,22.5,21.0,00.0,30.9,24.1,08.8,0000.0,0002.47,0005.91,0001.87
2023-04-07 13:52:00,,0833.9,5.00,0.00,22.5,21.0,00.0,30.9,24.0,08.8,0000.0,0002.47,0005.92,0001.87
2023-04-07 13:53:00,,0833.9,4.99,0.00,22.6,21.0,00.0,30.9,24.0,08.7,0000.0,0002.49,0005.96,0001.88
2023-04-07 13:54:00,,0833.9,4.99,0.00,22.6,20.9,00.0,30.9,24.0,09.0,0000.0,0002.52,0006.01,0001.88
2023-04-07 13:55:00,,0833.9,5.01,0.00,22.5,20.9,00.0,30.9,24.0,09.0,0000.0,0002.56,0006.10,0001.89
2023-04-07 13:56:00,,0833.9,5.00,0.00,22.5,20.8,00.0,30.9,23.9,08.8,0000.0,0002.59,0006.22,0001.89
2023-04-07 13:57:00,,0833.8,5.00,0.00,22.5,20.8,00.0,30.9,23.9,08.9,0000.0,0002.65,0006.51,0001.89
2023-04-07 13:58:00,,0833.8,5.00,0.00,22.5,20.7,00.0,30.9,23.9,08.9,0000.0,0002.68,0005.97,0001.89
2023-04-07 13:59:00,,0833.8,5.01,0.00,22.4,20.7,00.0,30.8,23.9,09.0,0000.0,0002.68,0005.88,0001.86
